Retour au catalogue

STARLINK-35150

ActifCommunicationsVLEO
NORAD 65635·PAYLOAD·🇺🇸 United States

Lancé Sep 18, 2025 depuis Cape Canaveral Space Force Station

Loading…

Prochains Passages (prochaines 24 heures)

TLE

FraisSource: CelesTrak SupGP

Époque: Sep 14, 2026, 21:36 UTC

1 65635C 25210P   26257.90048611 -.00064691  00000+0 -19109-2 0  2572
2 65635  53.1589 147.7014 0001328  90.6714  42.4712 15.34430020    16

Suivez STARLINK-35150 en temps réel avec AllMySat

Download on the App Store